Wind_Speed
7 9 8 8 9 9 10 10 11 11 11 11 12 12 12 12 11 11 12 12 12 11 12 12 12 12 11 10 9 9 8 7 7 7 7 8 8 9 9 9 10 10 11
6 7 7 7 7 8 9 10 11 11 12 13 13 14 14 14 13 13 13 13 13 12 12 12 13 13 12 11 10 9 9 9 8 9 9 9 10 10 11 11 12 12 14
5 5 6 6 6 6 7 8 9 10 11 12 13 14 14 14 13 13 13 13 13 12 12 12 13 12 11 10 10 9 10 10 10 11 11 11 12 12 13 13 14 14 15
5 4 4 4 5 5 6 7 7 8 9 10 11 11 12 12 12 12 11 11 11 12 12 12 12 11 10 10 10 10 11 11 12 13 13 13 13 13 14 14 15 16 16
5 3 3 3 3 4 4 5 5 6 6 7 8 9 9 10 10 10 10 10 10 11 11 11 11 11 10 10 10 11 12 12 12 13 13 12 12 12 13 14 14 15 16
5 4 3 2 2 1 1 2 3 3 5 5 6 7 7 8 8 8 8 8 9 10 10 10 10 10 10 10 10 11 11 11 12 13 12 12 12 12 13 14 15 15 16
6 5 4 3 3 2 2 2 1 2 3 4 5 6 6 6 7 7 7 7 8 8 9 10 10 10 10 10 10 10 11 12 13 13 12 12 13 14 15 15 16 16 16
5 5 5 5 5 5 4 4 3 3 3 4 5 6 6 6 7 7 7 7 8 9 10 11 10 11 11 11 11 12 13 14 15 13 12 14 14 15 15 15 16 16 17
6 5 6 6 7 7 6 5 4 4 4 5 5 6 7 8 9 9 8 9 9 10 11 12 12 12 13 13 13 13 14 15 16 15 13 15 14 14 15 15 15 15 16
5 5 5 6 7 6 6 5 5 5 5 6 7 8 9 9 9 10 10 10 11 12 14 15 15 14 14 14 14 14 15 16 16 14 13 15 14 13 13 14 14 14 14
3 3 4 5 5 5 5 5 6 6 7 7 8 9 10 10 11 11 11 12 13 14 15 16 16 15 15 14 14 14 15 16 15 13 13 13 12 12 12 13 13 13 14
2 0 2 3 5 6 6 7 8 8 8 9 10 10 11 11 12 12 13 13 14 15 16 16 16 16 15 15 14 14 16 17 15 13 14 15 13 13 13 13 14 14 15
4 3 3 5 6 8 9 9 10 10 10 11 11 12 13 13 13 14 14 15 16 16 17 17 16 16 16 15 16 16 17 19 15 14 16 16 16 16 16 16 17 17 18
6 6 6 8 9 11 12 12 12 13 13 13 13 14 15 16 16 17 17 18 18 18 18 18 17 16 16 17 17 18 19 21 18 16 17 18 18 19 19 19 20 20 21
8 8 9 10 12 14 15 16 16 16 16 16 16 17 19 20 20 20 20 20 21 21 21 21 20 19 19 19 20 20 21 23 22 19 20 21 22 22 22 23 23 23 24
9 10 11 12 14 16 18 19 20 21 20 20 21 22 24 26 26 26 25 25 25 25 25 24 24 23 23 22 22 23 24 25 26 26 25 25 26 26 26 27 27 27 28
11 12 13 15 17 19 21 22 23 24 25 25 25 27 29 30 30 31 32 32 30 30 30 30 28 27 27 27 26 26 27 28 29 31 31 30 29 29 30 31 31 31 31
13 13 15 17 18 20 22 24 25 26 27 28 29 30 30 31 34 35 36 36 34 33 33 33 32 31 32 31 30 30 29 30 31 33 34 34 31 30 31 33 33 34 34
14 15 17 19 19 22 24 26 27 28 29 30 32 32 33 34 36 37 37 38 36 35 33 34 34 33 33 33 31 30 28 28 29 31 32 33 33 32 32 32 32 34 36
16 16 19 22 22 24 27 28 29 30 31 32 33 35 34 36 38 37 37 36 34 33 33 33 33 33 32 33 31 28 27 26 26 26 27 28 28 29 31 31 32 34 36
19 19 20 24 26 27 29 30 31 32 32 34 35 36 36 37 37 37 35 34 34 32 30 28 29 30 30 29 28 25 24 24 25 25 26 28 30 31 33 36 37 38 40
22 22 24 27 29 31 32 32 33 33 33 34 35 36 37 38 37 37 34 33 32 31 28 26 25 24 25 25 25 25 26 26 27 28 29 31 33 34 35 38 41 44 46
27 27 28 29 32 33 34 34 34 34 34 35 37 38 38 38 38 35 33 31 31 30 29 27 26 25 24 24 25 26 25 26 27 29 31 33 36 38 41 44 47 49 52
31 32 32 32 34 35 35 35 35 35 36 37 38 39 39 39 39 35 33 31 31 31 30 29 28 27 27 26 26 27 28 31 32 34 36 38 40 43 46 49 51 54 57
35 35 35 35 36 36 36 36 35 36 37 38 39 40 40 40 39 36 34 32 31 31 31 30 30 30 30 30 30 32 33 35 37 40 42 44 47 50 52 54 57 59 61
38 38 38 37 36 36 36 36 36 37 38 40 41 40 41 41 38 37 35 34 33 33 31 31 32 32 32 33 34 36 38 40 42 45 47 49 52 55 58 60 62 64 65
Wind_Direction
274 271 267 261 257 253 248 243 241 241 240 241 243 245 245 246 245 244 244 246 248 251 254 255 255 258 260 260 257 253 246 241 239 238 237 237 240 243 244 245 249 254 260
264 272 268 260 256 252 247 242 241 241 240 242 246 248 250 251 251 251 251 253 255 256 256 256 256 258 259 258 257 253 251 250 249 250 250 249 249 251 252 253 254 256 259
249 261 262 259 257 253 245 240 239 241 243 246 249 252 253 254 254 255 256 258 259 258 257 257 257 257 256 256 256 256 257 259 259 260 260 257 255 255 256 257 258 259 261
226 235 251 255 257 256 250 245 244 247 250 253 256 258 258 256 255 256 258 260 259 257 255 255 255 254 255 256 257 259 262 264 266 267 266 261 259 260 261 262 263 263 265
195 198 225 243 248 254 255 254 255 260 265 267 270 269 264 260 258 258 258 257 256 255 254 253 254 256 256 257 260 263 266 268 269 269 269 264 265 267 268 268 268 269 270
173 163 166 189 203 224 259 276 278 283 290 291 290 283 276 272 268 263 258 255 254 254 255 256 259 261 262 263 264 267 270 272 271 270 266 270 273 274 274 272 271 271 271
161 151 143 137 127 106 81 58 23 344 327 320 314 307 299 290 281 271 262 256 253 255 259 263 265 266 266 266 266 269 271 273 273 277 258 265 273 272 271 270 270 268 268
148 137 127 113 102 94 85 74 59 35 9 349 334 324 316 307 298 288 278 269 263 262 264 266 267 268 268 267 267 267 268 270 271 268 270 272 273 269 268 267 267 266 266
134 117 103 94 89 85 80 74 64 48 27 5 346 336 329 322 315 304 293 281 272 268 266 266 266 267 268 267 266 264 264 265 265 265 269 271 269 267 266 266 265 265 265
134 114 93 82 77 72 66 58 49 36 22 8 356 348 339 330 320 312 301 290 280 273 270 269 269 268 267 266 264 262 262 261 262 265 263 264 263 263 263 263 264 265 265
151 118 82 64 56 46 35 26 18 12 8 2 355 347 339 332 323 316 307 297 288 281 277 275 274 271 268 265 263 262 261 259 261 264 259 258 260 260 261 263 264 265 266
214 180 46 31 21 14 5 358 355 353 352 350 344 341 336 328 321 315 307 299 292 287 283 280 278 275 271 268 264 263 263 262 260 260 256 261 263 262 262 263 264 266 266
258 280 311 338 343 346 349 345 343 344 344 342 338 335 332 326 321 313 303 297 291 287 284 282 279 275 273 269 266 265 264 265 265 262 264 266 266 265 264 266 267 268 269
272 291 310 323 330 335 340 341 340 340 341 341 337 334 332 327 321 314 306 297 290 284 280 280 277 276 273 270 268 267 267 270 268 265 266 268 268 267 268 269 270 271 272
281 295 310 319 326 331 334 335 337 338 340 340 339 336 334 331 328 319 309 299 291 281 277 276 274 272 270 268 269 270 270 272 273 270 270 271 271 271 272 273 275 276 277
283 296 306 314 321 326 330 333 335 336 337 339 339 336 334 332 330 327 318 309 298 284 276 273 273 269 269 270 269 270 271 273 277 276 273 272 272 273 274 274 275 277 278
282 294 301 310 318 323 327 330 332 333 334 334 336 334 333 334 330 326 323 315 307 295 283 277 275 270 269 270 272 273 273 275 276 277 275 270 269 270 272 273 274 276 278
279 289 297 304 312 317 322 325 327 328 330 332 332 332 332 333 330 326 324 320 313 303 294 285 279 273 272 275 273 273 275 277 277 278 279 276 271 267 269 273 276 278 279
277 286 294 299 306 311 315 317 320 322 324 325 327 328 329 329 327 326 326 324 318 309 301 293 287 282 278 278 277 277 277 276 278 278 278 279 279 276 274 272 275 278 280
278 284 291 296 301 304 306 309 312 315 317 318 319 322 324 326 326 328 329 328 323 315 304 298 292 287 284 282 281 278 274 276 279 283 283 283 286 286 286 285 282 281 280
274 282 288 292 296 298 299 300 304 307 310 311 313 316 320 324 328 330 330 328 329 326 315 305 298 293 290 285 282 279 279 282 285 286 287 287 287 286 286 286 286 285 283
272 278 284 287 290 292 292 294 296 300 302 304 308 311 314 319 324 327 327 327 328 330 324 317 309 306 298 291 289 291 290 289 289 287 287 286 286 286 284 284 284 285 285
272 275 278 281 284 285 286 289 291 293 293 297 301 304 309 313 316 319 323 326 329 331 327 323 321 314 312 308 303 298 294 291 290 290 288 288 288 289 288 288 288 288 287
271 274 275 278 280 281 282 284 285 286 287 290 294 298 302 306 310 313 317 320 321 324 324 322 321 318 315 313 311 306 300 294 292 290 288 287 287 287 286 286 287 287 287
272 275 276 278 278 277 278 279 280 280 283 286 290 294 297 302 306 309 311 314 314 316 317 317 316 313 311 308 304 301 297 294 293 291 291 291 291 291 290 289 289 288 288
271 274 276 276 275 275 275 276 277 278 281 284 287 290 294 298 302 305 306 307 309 310 309 309 309 308 306 303 301 299 296 294 293 293 292 292 292 292 292 291 291 290 290
Height
5895 5894 5895 5896 5896 5897 5898 5898 5899 5900 5900 5900 5901 5901 5901 5901 5902 5902 5902 5902 5902 5903 5903 5903 5903 5903 5904 5904 5904 5904 5905 5905 5905 5905 5905 5906 5906 5907 5908 5908 5909 5909 5910
5894 5893 5893 5894 5894 5895 5896 5896 5897 5897 5898 5899 5899 5900 5900 5900 5900 5900 5901 5901 5901 5901 5902 5902 5902 5902 5902 5903 5903 5903 5904 5904 5904 5904 5905 5905 5905 5906 5906 5907 5907 5908 5908
5893 5892 5892 5893 5893 5894 5894 5895 5895 5896 5896 5897 5898 5898 5899 5899 5899 5899 5899 5899 5900 5900 5900 5900 5900 5901 5901 5902 5902 5902 5902 5903 5903 5903 5903 5903 5904 5904 5904 5905 5905 5906 5906
5892 5892 5892 5892 5892 5893 5893 5894 5894 5895 5895 5896 5897 5897 5898 5898 5898 5898 5898 5898 5898 5898 5898 5898 5899 5899 5900 5900 5901 5901 5901 5901 5901 5901 5901 5901 5901 5902 5902 5902 5903 5903 5904
5892 5892 5891 5891 5892 5892 5892 5893 5893 5894 5895 5895 5896 5896 5897 5897 5897 5897 5897 5897 5897 5897 5897 5897 5897 5898 5898 5899 5899 5899 5899 5899 5899 5898 5897 5896 5898 5899 5900 5900 5900 5901 5901
5892 5891 5891 5891 5892 5892 5892 5892 5893 5893 5894 5895 5895 5895 5896 5896 5896 5896 5896 5896 5896 5895 5895 5895 5895 5896 5896 5897 5897 5897 5897 5896 5896 5896 5896 5894 5895 5897 5897 5897 5898 5898 5898
5891 5891 5892 5892 5892 5892 5892 5892 5893 5893 5894 5894 5895 5895 5894 5894 5894 5894 5894 5894 5894 5894 5894 5894 5894 5894 5894 5894 5895 5895 5894 5894 5893 5892 5888 5891 5892 5894 5894 5894 5895 5895 5895
5892 5892 5892 5892 5892 5892 5892 5892 5893 5893 5893 5894 5894 5894 5893 5893 5893 5893 5893 5893 5893 5893 5892 5892 5892 5892 5892 5892 5892 5892 5892 5891 5891 5889 5886 5889 5890 5891 5891 5891 5891 5891 5891
5892 5892 5892 5892 5892 5892 5893 5893 5893 5893 5893 5893 5893 5893 5893 5893 5893 5893 5893 5892 5892 5891 5891 5890 5890 5889 5889 5890 5890 5889 5889 5888 5887 5888 5888 5887 5888 5888 5887 5888 5888 5888 5888
5893 5893 5893 5892 5892 5893 5893 5893 5893 5893 5893 5893 5892 5892 5892 5892 5891 5891 5891 5890 5890 5889 5888 5887 5887 5887 5887 5887 5887 5887 5886 5885 5884 5886 5886 5884 5884 5884 5885 5885 5885 5885 5885
5893 5893 5893 5893 5893 5893 5893 5893 5893 5893 5892 5892 5891 5891 5891 5891 5890 5889 5889 5888 5888 5887 5886 5885 5885 5885 5884 5884 5884 5884 5883 5882 5882 5883 5882 5880 5881 5882 5882 5882 5883 5883 5883
5892 5892 5893 5893 5893 5893 5893 5893 5893 5892 5892 5891 5891 5890 5890 5889 5889 5888 5887 5886 5885 5884 5883 5882 5882 5882 5882 5882 5882 5881 5880 5879 5880 5881 5879 5879 5879 5879 5879 5880 5880 5880 5880
5891 5892 5892 5892 5892 5892 5892 5892 5892 5891 5890 5890 5889 5889 5888 5888 5887 5886 5885 5883 5882 5881 5880 5879 5879 5878 5879 5879 5879 5878 5877 5875 5877 5878 5876 5876 5876 5876 5876 5876 5876 5876 5876
5891 5891 5891 5891 5891 5891 5891 5890 5890 5890 5889 5888 5888 5887 5886 5885 5884 5883 5882 5880 5879 5878 5877 5876 5875 5875 5875 5875 5875 5875 5873 5872 5873 5874 5873 5873 5873 5873 5872 5872 5872 5871 5871
5890 5890 5890 5890 5889 5889 5889 5889 5888 5888 5888 5887 5886 5884 5883 5882 5881 5879 5878 5876 5875 5874 5873 5872 5872 5872 5871 5871 5871 5871 5870 5868 5868 5870 5870 5869 5869 5868 5868 5868 5867 5867 5866
5888 5888 5888 5888 5888 5887 5887 5887 5886 5885 5885 5884 5883 5881 5880 5879 5877 5875 5874 5872 5870 5869 5867 5866 5867 5866 5866 5866 5866 5866 5865 5864 5863 5863 5864 5864 5864 5863 5863 5862 5862 5861 5861
5886 5886 5886 5886 5886 5886 5885 5885 5884 5883 5882 5881 5880 5878 5877 5875 5873 5871 5869 5866 5864 5863 5861 5861 5861 5860 5860 5860 5861 5861 5860 5860 5859 5857 5857 5858 5858 5858 5857 5856 5855 5854 5854
5883 5884 5884 5884 5884 5883 5883 5882 5881 5880 5879 5878 5877 5875 5874 5872 5869 5866 5864 5860 5857 5855 5854 5853 5854 5854 5853 5854 5854 5854 5854 5854 5853 5852 5850 5849 5850 5851 5851 5849 5848 5847 5845
5880 5881 5881 5881 5881 5880 5880 5879 5878 5877 5876 5875 5874 5872 5870 5868 5865 5862 5858 5854 5850 5848 5847 5846 5846 5847 5847 5847 5847 5848 5848 5847 5847 5846 5845 5843 5842 5842 5843 5843 5841 5839 5838
5876 5878 5877 5877 5877 5877 5876 5875 5874 5874 5873 5871 5870 5868 5866 5864 5861 5858 5854 5850 5846 5843 5841 5840 5839 5839 5840 5840 5840 5841 5841 5841 5840 5840 5839 5837 5836 5835 5833 5833 5833 5831 5830
5873 5874 5874 5873 5872 5872 5872 5871 5870 5870 5869 5867 5865 5863 5861 5860 5857 5854 5850 5846 5842 5839 5836 5834 5833 5833 5833 5833 5834 5834 5834 5834 5833 5833 5832 5831 5829 5828 5827 5824 5822 5820 5819
5867 5869 5869 5868 5868 5867 5866 5866 5865 5865 5865 5863 5861 5858 5857 5855 5853 5850 5847 5843 5840 5836 5833 5830 5829 5828 5828 5827 5828 5829 5829 5828 5827 5826 5825 5823 5821 5819 5817 5814 5812 5809 5806
5861 5863 5864 5863 5862 5861 5860 5860 5859 5859 5859 5857 5855 5853 5851 5850 5848 5846 5843 5839 5836 5833 5830 5827 5826 5824 5823 5823 5822 5822 5822 5821 5820 5819 5817 5814 5812 5809 5806 5803 5799 5796 5792
5856 5856 5857 5857 5856 5854 5854 5853 5853 5853 5852 5851 5849 5848 5846 5844 5843 5840 5838 5835 5832 5829 5826 5823 5821 5819 5818 5816 5815 5814 5813 5812 5811 5809 5807 5804 5802 5799 5795 5791 5786 5782 5777
5850 5850 5849 5850 5848 5847 5847 5846 5846 5845 5844 5844 5842 5841 5840 5838 5836 5834 5832 5829 5827 5824 5821 5818 5815 5813 5811 5810 5808 5806 5804 5802 5800 5797 5795 5792 5788 5784 5780 5776 5771 5766 5761
5844 5843 5842 5842 5841 5840 5839 5838 5838 5837 5836 5836 5835 5834 5833 5831 5829 5827 5825 5823 5820 5817 5814 5812 5809 5807 5804 5802 5800 5798 5795 5792 5789 5786 5783 5780 5775 5770 5764 5759 5753 5748 5742